Skip Page Navigation
NASA JPL Caltech
NASA Logo - Jet Propulsion Laboratory + View the NASA Portal
+ Center for Near-Earth Object Studies
JPL Home Earth Solar System Stars & Galaxies Technology
JPL Solar System Dynamics
BODIES ORBITS EPHEMERIDES TOOLS PHYSICAL DATA DISCOVERY FAQ SITE MAP
IMPORTANT: The SSD Announcement email list is now available. Major changes are coming in the near future, including possible hostname and/or URL changes. To be notified of such changes, subscribe to this email list.

Please visit this page for more details.


JPL Small-Body Database Browser
Search: [ help ]  
59831 (1999 RR36)
Classification: Main-belt Asteroid          SPK-ID: 2059831
Ephemeris | Orbit Diagram | Orbital Elements | Mission Design | Physical Parameters | Discovery Circumstances ]

[ show orbit diagram ]
Orbital Elements at Epoch 2458600.5 (2019-Apr-27.0) TDB
Reference: JPL 21 (heliocentric ecliptic J2000)
 Element Value Uncertainty (1-sigma)   Units 
e .04552161808269984 4.5151e-08  
a 2.950086615078719 1.8892e-08 au
q 2.815793898876221 1.4145e-07 au
i 1.713481980428736 8.8037e-06 deg
node .2358438198074568 0.00012038 deg
peri 69.46934998280493 0.00015485 deg
M 256.7429609120801 9.838e-05 deg
tp 2459131.345016021585
(2020-Oct-08.84501602)
0.00050698 TDB
period 1850.762015411381
5.07
1.7779e-05
4.868e-08
d
yr
n .1945144740394839 1.8685e-09 deg/d
Q 3.084379331281217 1.9753e-08 au
  Orbit Determination Parameters
   # obs. used (total)      963  
   data-arc span      10080 days (27.60 yr)  
   first obs. used      1992-04-24  
   last obs. used      2019-11-29  
   planetary ephem.      DE431  
   SB-pert. ephem.      SB431-N16  
   condition code      0  
   norm. resid. RMS      .53504  
   source      ORB  
   producer      Otto Matic  
   solution date      2019-Dec-14 06:13:07  

Additional Information
 Earth MOID = 1.83018 au 
 Jupiter MOID = 2.04875 au 
 T_jup = 3.267 
[ show covariance matrix ]

Ephemeris | Orbit Diagram | Orbital Elements | Mission Design | Physical Parameters | Discovery Circumstances ]

Physical Parameter Table
Parameter Symbol Value Units Sigma Reference Notes
absolute magnitude H 14.3   n/a MPO493292  

59831 (1999 RR36)          Discovered 1999-Sep-11 by Korlevic, K. at Visnjan
Reference: 20030614/Numbers.arcLast Updated: 2004-04-19

Alternate Designations
 1999 RR36 = 2000 YX110 
Ephemeris | Orbit Diagram | Orbital Elements | Mission Design | Physical Parameters | Discovery Circumstances ]
ABOUT SSD CREDITS/AWARDS PRIVACY/COPYRIGHT GLOSSARY LINKS
FirstGov 2020-Jan-21 17:21 UT
(server date/time)  
NASA Home Page
Site Manager:   Ryan S. Park
Webmaster  Alan B. Chamberlin